Andrews, TX

7:22 AM CDT on July 22, 2017 (GMT -0500)
Andrews

Weather History for KE11 - February, 2014

Change the Weather History Date:

Saturday, February 15, 2014

  Actual Average (KMAF) Record (KMAF)
Temperature  
Mean Temperature 60 °F -  
Max Temperature 84 °F 60 °F 84 °F (2000)
Min Temperature 37 °F 35 °F 11 °F (1951)
Degree Days  
Heating Degree Days 4    
Growing Degree Days 10 (Base 50)    
Moisture  
Dew Point 25 °F    
Average Humidity 34    
Maximum Humidity 73    
Minimum Humidity 8    
Precipitation  
Precipitation 0.00 in - - ()
Sea Level Pressure  
Sea Level Pressure 30.03 in    
Wind  
Wind Speed 6 mph (WSW)    
Max Wind Speed 16 mph    
Max Gust Speed 25 mph    
Visibility 10 miles    
Events      
Averages and records for this station are not official NWS values.
T = Trace of Precipitation, MM = Missing Value Source: NWS Daily Summary

Daily Weather History Graph

Daily Weather History Graph

Search for Another Location

Airport or City:

Trip Planner

Search our weather history database for the weather conditions in past years. The results will help you decide how hot, cold, wet, or windy it might be!

Date:

Astronomy

Feb. 15, 2014 Rise Set
Actual Time 7:32 AM CST 6:36 PM CST
Civil Twilight 7:07 AM CST 7:01 PM CST
Nautical Twilight 6:38 AM CST 7:30 PM CST
Astronomical Twilight 6:10 AM CST 7:58 PM CST
Moon 7:31 PM CST (2/15) 7:37 AM CST (2/15)
Length of Visible Light 11h 53m
Length of Day
11h 03m
Waxing Gibbous, 99% of the Moon is Illuminated
Feb 15
Waxing Gibbous
Feb 22
Last Quarter
Mar 1
New
Mar 8
First Quarter
Mar 16
Full

Hourly Weather History & Observations

Time (CST) Temp. Windchill Dew Point Humidity Pressure Visibility Wind Dir Wind Speed Gust Speed Precip Events Conditions
12:15 AM 41.9 °F 38.2 °F 27.7 °F 57% 30.12 in 10.0 mi SSE 5.8 mph - N/A   Clear
12:35 AM 41.2 °F 38.2 °F 27.7 °F 59% 30.12 in 10.0 mi SSE 4.6 mph - N/A   Clear
12:55 AM 41.5 °F 39.6 °F 27.1 °F 57% 30.11 in 10.0 mi SSE 3.5 mph - N/A   Clear
1:15 AM 41.0 °F 38.0 °F 27.3 °F 58% 30.10 in 10.0 mi South 4.6 mph - N/A   Clear
1:35 AM 41.0 °F 37.1 °F 27.3 °F 58% 30.10 in 10.0 mi South 5.8 mph - N/A   Clear
1:55 AM 42.3 °F 38.6 °F 27.0 °F 55% 30.10 in 10.0 mi South 5.8 mph - N/A   Clear
2:15 AM 42.6 °F 40.9 °F 27.0 °F 54% 30.10 in 10.0 mi South 3.5 mph - N/A   Clear
2:35 AM 41.5 °F 39.6 °F 27.1 °F 57% 30.09 in 10.0 mi SSW 3.5 mph - N/A   Clear
2:55 AM 42.1 °F 39.2 °F 26.1 °F 53% 30.09 in 10.0 mi South 4.6 mph - N/A   Clear
3:15 AM 42.3 °F - 26.2 °F 53% 30.08 in 10.0 mi Calm Calm - N/A   Clear
3:35 AM 42.4 °F - 25.7 °F 52% 30.08 in 10.0 mi Calm Calm - N/A   Clear
3:55 AM 41.5 °F - 27.3 °F 57% 30.08 in 10.0 mi Calm Calm - N/A   Clear
4:15 AM 41.4 °F - 27.0 °F 57% 30.08 in 10.0 mi Calm Calm - N/A   Clear
4:35 AM 41.0 °F - 26.6 °F 57% 30.07 in 10.0 mi Calm Calm - N/A   Clear
4:50 AM 41.5 °F - 27.9 °F 58% 30.07 in 10.0 mi Calm Calm - N/A   Clear
5:15 AM 42.8 °F 41.1 °F 25.7 °F 51% 30.06 in 10.0 mi South 3.5 mph - N/A   Clear
5:35 AM 42.4 °F 39.6 °F 25.9 °F 52% 30.06 in 10.0 mi SSE 4.6 mph - N/A   Clear
5:55 AM 40.1 °F - 26.2 °F 58% 30.06 in 10.0 mi Calm Calm - N/A   Clear
6:15 AM 39.7 °F 36.5 °F 25.7 °F 57% 30.06 in 10.0 mi SSE 4.6 mph - N/A   Clear
6:35 AM 38.5 °F 35.0 °F 26.8 °F 63% 30.05 in 10.0 mi South 4.6 mph - N/A   Clear
6:55 AM 39.4 °F - 26.6 °F 60% 30.06 in 10.0 mi Calm Calm - N/A   Clear
7:15 AM 39.0 °F - 26.8 °F 62% 30.07 in 10.0 mi Calm Calm - N/A   Clear
7:35 AM 37.4 °F - 27.7 °F 68% 30.06 in 10.0 mi Calm Calm - N/A   Clear
7:55 AM 37.0 °F - 28.9 °F 73% 30.07 in 10.0 mi Calm Calm - N/A   Clear
8:15 AM 38.5 °F - 29.7 °F 71% 30.07 in 10.0 mi Calm Calm - N/A   Clear
8:35 AM 41.5 °F 39.6 °F 29.1 °F 61% 30.07 in 10.0 mi SSW 3.5 mph - N/A   Clear
8:55 AM 45.0 °F 41.8 °F 27.9 °F 51% 30.06 in 10.0 mi SSW 5.8 mph - N/A   Clear
9:15 AM 48.7 °F - 28.6 °F 46% 30.07 in 10.0 mi SW 8.1 mph - N/A   Clear
9:35 AM 51.6 °F - 29.1 °F 42% 30.07 in 10.0 mi SW 10.4 mph - N/A   Clear
9:55 AM 54.5 °F - 30.0 °F 39% 30.07 in 10.0 mi SW 9.2 mph - N/A   Clear
10:15 AM 57.6 °F - 30.4 °F 36% 30.07 in 10.0 mi SW 9.2 mph - N/A   Clear
10:35 AM 59.7 °F - 30.6 °F 33% 30.07 in 10.0 mi West 6.9 mph - N/A   Clear
10:55 AM 63.3 °F - 30.2 °F 29% 30.07 in 10.0 mi WSW 6.9 mph - N/A   Clear
11:15 AM 67.3 °F - 29.1 °F 24% 30.07 in 10.0 mi WSW 8.1 mph - N/A   Clear
11:35 AM 68.4 °F - 28.4 °F 22% 30.06 in 10.0 mi West 11.5 mph - N/A   Clear
11:55 AM 71.4 °F - 28.0 °F 20% 30.06 in 10.0 mi West 9.2 mph - N/A   Clear
12:15 PM 73.6 °F - 27.3 °F 18% 30.04 in 10.0 mi West 11.5 mph - N/A   Clear
12:35 PM 75.9 °F - 27.9 °F 17% 30.03 in 10.0 mi West 12.7 mph - N/A   Clear
12:55 PM 78.3 °F - 27.7 °F 16% 30.02 in 10.0 mi West 9.2 mph - N/A   Clear
1:15 PM 81.9 °F - 23.9 °F 12% 30.00 in 10.0 mi NW 16.1 mph 24.2 mph N/A   Clear
1:35 PM 82.0 °F - 23.0 °F 11% 29.99 in 10.0 mi NW 16.1 mph 24.2 mph N/A   Clear
1:55 PM 82.6 °F - 22.8 °F 11% 29.99 in 10.0 mi WNW 15.0 mph 23.0 mph N/A   Clear
2:15 PM 83.3 °F - 21.2 °F 10% 29.98 in 10.0 mi NW 13.8 mph 25.3 mph N/A   Clear
2:35 PM 84.0 °F - 21.2 °F 10% 29.98 in 10.0 mi NW 12.7 mph 19.6 mph N/A   Clear
2:55 PM 84.2 °F - 20.7 °F 10% 29.98 in 10.0 mi NW 13.8 mph 21.9 mph N/A   Clear
3:15 PM 84.2 °F - 19.4 °F 9% 29.97 in 10.0 mi NW 13.8 mph - N/A   Clear
3:35 PM 84.4 °F - 19.4 °F 9% 29.97 in 10.0 mi NW 11.5 mph - N/A   Clear
3:55 PM 83.7 °F - 18.5 °F 9% 29.97 in 10.0 mi NW 8.1 mph - N/A   Clear
4:15 PM 84.4 °F - 17.6 °F 8% 29.97 in 10.0 mi NW 9.2 mph - N/A   Clear
4:35 PM 84.2 °F - 16.9 °F 8% 29.97 in 10.0 mi NW 9.2 mph - N/A   Clear
4:55 PM 84.2 °F - 16.5 °F 8% 29.97 in 10.0 mi NW 5.8 mph - N/A   Clear
5:15 PM 83.7 °F - 17.1 °F 8% 29.97 in 10.0 mi WNW 5.8 mph - N/A   Clear
5:35 PM 83.3 °F - 18.0 °F 9% 29.96 in 10.0 mi WNW 6.9 mph - N/A   Clear
5:55 PM 81.9 °F - 16.3 °F 9% 29.97 in 10.0 mi West 9.2 mph - N/A   Clear
6:15 PM 79.5 °F - 18.3 °F 10% 29.97 in 10.0 mi West 6.9 mph - N/A   Clear
6:35 PM 75.0 °F - 20.3 °F 13% 29.97 in 10.0 mi WSW 6.9 mph - N/A   Clear
6:55 PM 72.5 °F - 20.1 °F 14% 29.98 in 10.0 mi WSW 6.9 mph - N/A   Clear
7:15 PM 70.7 °F - 22.3 °F 16% 29.98 in 10.0 mi SW 6.9 mph - N/A   Clear
7:35 PM 68.9 °F - 23.0 °F 18% 29.99 in 10.0 mi SW 6.9 mph - N/A   Clear
7:55 PM 67.1 °F - 23.4 °F 19% 29.99 in 10.0 mi SW 6.9 mph - N/A   Clear
8:15 PM 64.9 °F - 23.5 °F 21% 29.99 in 10.0 mi SW 6.9 mph - N/A   Clear
8:35 PM 63.5 °F - 23.7 °F 22% 30.00 in 10.0 mi SW 8.1 mph - N/A   Clear
8:55 PM 63.5 °F - 23.7 °F 22% 30.00 in 10.0 mi SW 8.1 mph - N/A   Clear
9:15 PM 62.2 °F - 24.1 °F 23% 30.00 in 10.0 mi SW 9.2 mph - N/A   Clear
9:35 PM 61.7 °F - 24.4 °F 24% 30.01 in 10.0 mi SW 8.1 mph - N/A   Clear
9:55 PM 61.0 °F - 24.8 °F 25% 30.01 in 10.0 mi SW 6.9 mph - N/A   Clear
10:15 PM 61.3 °F - 24.8 °F 25% 30.01 in 10.0 mi SW 9.2 mph - N/A   Clear
10:35 PM 61.5 °F - 24.8 °F 25% 30.01 in 10.0 mi SW 11.5 mph - N/A   Clear
10:55 PM 60.8 °F - 25.7 °F 26% 30.01 in 10.0 mi SSW 12.7 mph - N/A   Clear
11:15 PM 60.6 °F - 27.9 °F 29% 30.00 in 10.0 mi SW 13.8 mph - N/A   Clear
11:35 PM 59.0 °F - 28.4 °F 31% 30.00 in 10.0 mi SW 11.5 mph - N/A   Clear
11:55 PM 58.1 °F - 29.5 °F 34% 30.00 in 10.0 mi SW 12.7 mph - N/A   Clear